Погода Илирней

Погода Илирней : погода сейчас, прогноз погоды и архив. Всё, что Вы хотите узнать о погоде Илирней!

Хотите узнать прогноз погоды Илирней? Тогда Вам сюда: Погода Илирней

Поиск расширенной информации на нашем сайте:

Другие новости

Новости СМИ2

Главная страница сайта

Новости сайта

03.07.2017

Напоминаем, что на нашем специализированном сайте Метеоцентр.Азия вы можете получить высокодетализированные автоматические прогнозы погоды по пунктам России, СНГ и мира в авиационном формате (включающие направление и скорость ветра, видимость, явления погоды, количество и форму облачности, нижнюю и верхнюю границу облачности).


Погода Илирней - сегодня

Время (UTC), дата Ветер
(°,м/с) 
Видим.   Явления Облачность Т
(°С)
Тd
(°С)
f(%) Тe
(°С)
Pmin
(гПа)
dP
(гПа)
Po
(мм)
O2
(г/м3)
Тmin Tmax R s Состояние
почвы
06 19.02.18 тихо () {04}  20000 м  {снег}  10/0 средняя 
[Ac und]
-15.3 -17.2 85 -15  1005  1.4  719  308           
12 19.02.18 тихо () {04}  20000 м    10/0 средняя 
[Ac und]
-16.2 -17.5 90 -16  1006.6  -0.4  720  310           
15 19.02.18 тихо () {05}  20000 м    10/0 средняя 
[Ac und]
-18.8 -20.7 85 -19  1005.6  -1.6  719  313           
18 19.02.18 тихо () {02}  20000 м    10/0 средняя 
[Ac und]
-19.5 -22.1 80 -20  1006  -2.4  717  313           
03 20.02.18 230 (ЮЗ) 2{05}  20000 м    9/0 средняя, верхняя 
[Ac trans|Cs]
-21 -25 70 -24  996.5  -2.7  713  313           
06 20.02.18 200 (Ю) 2{05}  20000 м    10/0 средняя 
[Ac und]
-21.6 -25.6 70 -25  997.5  0.8  713  314           
12 20.02.18 270 (З) 3{06}  20000 м    10/0 средняя 
[Ac und]
-23.5 -26.7 75 -28  1001.6  2.2  716  317           
15 20.02.18 280 (З) 5{09}  4000 м  позёмок  10/0 средняя 
[Ac und]
-21.8 -25 75 -29  1003.6  2.3  717  316           
18 20.02.18 310 (СЗ) 5{10}  4000 м    10/0 средняя 
[Ac und]
-21.5 -24.7 75 -28  1006.9  3.3  720  317           
03 21.02.18 030 (СВ) 1{02}  20000 м    10/0 средняя 
[Ac trans]
-20.6 -24.6 70 -21  1014  1.4  725  318           
06 21.02.18 360 (С) 1{02}  20000 м    8/0 средняя, верхняя 
[Ac trans|Ci fib]
-24.7 -28.6 70 -25  1016  1.2  726  323           
12 21.02.18 340 (С) 1{02}  20000 м    3/0 средняя 
[Ac trans]
-27.2 -31 70 -28  1018.2  0.4  727  327           
15 21.02.18 320 (СЗ) 2{05}  4000 м  слаб. снег  10/0 средняя 
[As op]
-25.4 -27.8 80 -29  1018.1  0.3  727  325           
18 21.02.18 320 (СЗ) 2{03}  4000 м  слаб. снег  10/0 средняя 
[As op]
-24.8 -26.6 85 -28  1017.8  -0.3  727  324           
21 21.02.18 тихо () {02}  4000 м  слаб. снег  10/0 средняя 
[As op]
-23.9 -25.1 90 -24  1017.8  0.1  727  323  -27.2    38  неравномерный
сухой снег
100% 
03 22.02.18 340 (С) 2{04}  20000 м    10/0 средняя 
[As op]
-23.6 -25.5 84 -27  1018.4  728  323           
06 22.02.18 340 (С) 1{03}  20000 м    10/0 средняя 
[Ac As]
-24.4 -26.9 80 -25  1019.6  1.2  729  324           
09 22.02.18 060 (СВ) 2{04}  20000 м    8/0 средняя 
[Ac As]
-25.5 -28 80 -29  1021.7  -1.8  730  326    -23.3       
12 22.02.18 110 (В) 2{04}  20000 м    5/0 средняя 
[Ac trans]
-27 -30.1 75 -30  1023.9  1.7  731  329           
15 22.02.18 180 (Ю) 1{04}  20000 м    3/0 средняя 
[Ac trans]
-27.3 -30.4 75 -28  1025.7  1.8  733  330           
18 22.02.18 240 (ЮЗ) 1{02}  20000 м    ясно 
-28.4 -31.5 75 -29  1028.4  2.2  734  332           
03 23.02.18 130 (ЮВ) 1{02}  20000 м    ясно 
-23.3 -27.2 70 -24  1032.1  0.8  738  327           
06 23.02.18 180 (Ю) 1{02}  20000 м    ясно 
-32.2 -35.9 70 -33  1035.5  1.4  739  339           
12 23.02.18 тихо () {01}  20000 м    ясно 
-40 -43.3 71 -40  1039.1  0.8  740  351           
15 23.02.18 тихо () {00}  20000 м    ясно 
-41.4 -44.9 69 -41  1039.9  0.5  740  354           
Время (UTC), дата Ветер
(°,м/с) 
Видим.   Явления Облачность Т
(°С)
Тd
(°С)
f(%) Тe
(°С)
Pmin
(гПа)
dP
(гПа)
Po
(мм)
O2
(г/м3)
Тmin Tmax R s Состояние
почвы

Для получения пояснительной информации подведите курсор к названию столбца.

ПОГОДА Илирней - архив

Всё, что Вы хотите узнать о погоде Илирней - удобно и подробно!

Выберите нужную дату (начиная с 1 января 2015* года) и нажмите кнопку "Найти".
Будут отображены архивные сводки погоды по пункту Илирней, начиная с указанной даты.


Отображать данные в формате CSV (для использования в таблицах Excel)


Внимание! Наш архив погоды предназначен исключительно для личного некоммерческого использования в познавательных целях. Если Вам необходимы официальные справки о состоянии погоды (для производственных, юридических, коммерческих и т.п. целей), обращайтесь в органы Росгидромета.

*Примечание: данная дата относится к архиву по метеостанциям СССР (Россия, СНГ, Балтия).
Архив по метеостанциям Зарубежной Европы и Азии (кроме Китая) хранится 10 дней, по другим регионам земного шара (Китай, Африка, Америка, Австралия, Океания) - 1 день.

Илирней - район местоположения метеостанции


Название, широта, долгота, высота метеостанции:
Илирней 67.2°ш. 168°д. 353 м над ур. моря [Российская Федерация]

Дополнительная информация

В oтличие oт бoльшинства пoгoдных сайтoв мы публикуем пoдрoбную метеoинфoрмацию в детальнoм прoфессиoнальнoм фoрмате.

Характеристики температуры и влажнoсти вoздуха измеряются на высoте 2 м в тени вдали oт зданий и деревьев.
Скoрoсть ветра измеряется на высoте 10 м (на урoвне рoста челoвека скoрoсть ветра ниже в 1.5-2 раза). Если метеoстанция нахoдится в гoрoде или в лесу, тo скoрoсть ветра занижена на 2-4 м/с пo сравнению с oткрытым местoм. Скoрoсть ветра над акватoриями крупных рек и oзёр, а также на вершинах хoлмoв на 2-5 м/с выше, чем в oбычных услoвиях.
Атмoсфернoе давление в разных тoчках местнoсти мoжет значительнo oтличаться oт давления на метеoстанции, в зависимoсти oт услoвий рельефа (при пoдъёме на 10 м давление пoнижается примернo на 1 мм рт.ст.).